TimeCDT,TemperatureF,Dew PointF,Humidity,Sea Level PressureIn,VisibilityMPH,Wind Direction,Wind SpeedMPH,Gust SpeedMPH,PrecipitationIn,Events,Conditions,WindDirDegrees,DateUTC
12:53 AM,63.0,50.0,63,29.76,10.0,SSW,11.5,-,N/A,,Clear,210,2013-03-16 05:53:00
1:53 AM,62.1,48.9,62,29.76,10.0,SSW,9.2,-,N/A,,Clear,210,2013-03-16 06:53:00
2:53 AM,61.0,48.9,64,29.76,10.0,SW,10.4,-,N/A,,Clear,220,2013-03-16 07:53:00
3:53 AM,60.1,48.0,64,29.74,10.0,SW,10.4,-,N/A,,Clear,220,2013-03-16 08:53:00
4:53 AM,57.9,48.0,70,29.74,10.0,SSW,11.5,-,N/A,,Clear,210,2013-03-16 09:53:00
5:53 AM,57.0,48.0,72,29.75,10.0,SW,9.2,-,N/A,,Clear,220,2013-03-16 10:53:00
6:53 AM,55.9,46.9,72,29.78,10.0,SW,6.9,-,N/A,,Clear,220,2013-03-16 11:53:00
7:53 AM,55.9,48.0,75,29.79,10.0,SW,9.2,-,N/A,,Clear,220,2013-03-16 12:53:00
8:53 AM,59.0,48.9,69,29.81,10.0,SW,10.4,-,N/A,,Clear,220,2013-03-16 13:53:00
9:53 AM,62.1,50.0,65,29.82,10.0,SW,10.4,-,N/A,,Clear,220,2013-03-16 14:53:00
10:53 AM,64.9,51.1,61,29.82,10.0,SW,11.5,-,N/A,,Clear,220,2013-03-16 15:53:00
11:53 AM,71.1,48.0,44,29.83,10.0,WNW,6.9,-,N/A,,Clear,300,2013-03-16 16:53:00
12:53 PM,73.9,48.0,40,29.83,10.0,North,5.8,-,N/A,,Clear,10,2013-03-16 17:53:00
1:53 PM,72.0,51.1,48,29.84,10.0,NE,15.0,23.0,N/A,,Clear,50,2013-03-16 18:53:00
2:53 PM,69.1,48.9,49,29.85,10.0,NE,17.3,23.0,N/A,,Clear,50,2013-03-16 19:53:00
3:53 PM,64.0,46.0,52,29.85,10.0,ENE,17.3,24.2,N/A,,Clear,60,2013-03-16 20:53:00
4:53 PM,59.0,44.1,58,29.86,6.0,NE,18.4,25.3,N/A,,Haze,50,2013-03-16 21:53:00
5:53 PM,55.9,41.0,57,29.89,7.0,NNE,16.1,21.9,N/A,,Mostly Cloudy,30,2013-03-16 22:53:00
6:53 PM,52.0,39.0,61,29.91,7.0,NE,15.0,23.0,N/A,,Overcast,40,2013-03-16 23:53:00
7:53 PM,50.0,39.0,66,29.93,8.0,NE,15.0,-,N/A,,Overcast,40,2013-03-17 00:53:00
8:53 PM,48.9,39.0,69,29.95,8.0,NE,15.0,-,N/A,,Mostly Cloudy,40,2013-03-17 01:53:00
9:53 PM,48.0,37.9,68,29.95,7.0,NE,15.0,-,N/A,,Clear,40,2013-03-17 02:53:00
10:53 PM,46.0,37.9,73,29.96,7.0,NE,11.5,-,N/A,,Clear,40,2013-03-17 03:53:00
11:53 PM,46.0,37.9,73,29.96,7.0,NE,10.4,21.9,N/A,,Overcast,40,2013-03-17 04:53:00